Regional Weather Roundup
Issued by NWS

Home | Current Version | Previous Version | Graphics & Text | Print | Product List | Glossary Off
Versions: 1 2 3 4 5 6 7 8 9 10 11 12 13 14 15 16 17 18 19 20 21 22 23 24 25 26 27 28 29 30 31 32 33 34 35 36 37 38 39 40 41 42 43 44 45 46 47 48 49 50

611
ASUS43 KMKX 280200
RWRWI

WISCONSIN REGIONAL WEATHER ROUNDUP
NATIONAL WEATHER SERVICE MILWAUKEE/SULLIVAN WI
900 PM CDT TUE JUN 27 2017

NOTE: "FAIR" INDICATES FEW OR NO CLOUDS BELOW 12,000 FEET WITH NO
SIGNIFICANT WEATHER AND/OR OBSTRUCTIONS TO VISIBILITY.

WIZ001-002-006>008-014>016-023>028-280300-
NORTHWEST WISCONSIN

CITY           SKY/WX    TMP DP  RH WIND       PRES   REMARKS
SUPERIOR ARPT  NOT AVBL
ASHLAND        PTCLDY    62  50  64 S6        29.86S
HAYWARD        CLEAR     65  47  52 S6        29.88S
SIREN          NOT AVBL
CUMBERLAND     NOT AVBL
RICE LAKE      CLEAR     68  44  41 S8        29.90S
CHETEK         NOT AVBL
LADYSMITH      CLEAR     66  47  50 S5        29.92S
EAU CLAIRE     NOT AVBL
MENOMONIE      CLEAR     67  47  49 SE6       29.89S
NEW RICHMOND   NOT AVBL
OSCEOLA        NOT AVBL
$$

WIZ003>005-009-010-017-018-280300-
NORTH CENTRAL WISCONSIN

CITY           SKY/WX    TMP DP  RH WIND       PRES   REMARKS
MANITOWISH WTR CLEAR     62  48  60 S6        29.91S
ARBOR VITAE    NOT AVBL
WOODRUFF       NOT AVBL
RHINELANDER    CLEAR     63  49  60 S5        29.93F
EAGLE RIVER    NOT AVBL
LAND O LAKES   CLEAR     65  46  50 SW5       29.93S
PHILLIPS       CLEAR     64  49  57 S3        29.91S
TOMAHAWK       NOT AVBL
MEDFORD        NOT AVBL
MERRILL        CLOUDY    66  50  55 S3        29.94S
$$

WIZ029-030-035-036-043>047-280300-
CENTRAL WISCONSIN

CITY           SKY/WX    TMP DP  RH WIND       PRES   REMARKS
WAUSAU           N/A    N/A N/A N/A MISG      29.92S
MOSINEE        PTCLDY    63  50  63 S5        29.95F
MARSHFIELD     CLEAR     61  47  59 SW6       29.93S
STEVENS POINT  NOT AVBL
WAUPACA        CLOUDY    67  51  54 CALM      29.95F
WAUTOMA        PTCLDY    63  52  67 S5        29.96S
WISC RAPIDS    CLEAR     64  51  62 S6        29.95S
CAMP DOUGLAS   NOT AVBL
$$

WIZ011>013-019>022-031-037>040-048>050-280300-
NORTHEAST WISCONSIN

CITY           SKY/WX    TMP DP  RH WIND       PRES   REMARKS
ANTIGO         CLEAR     61  50  65 SW6       29.95S
SHAWANO        NOT AVBL
OCONTO         NOT AVBL
STURGEON BAY     N/A     62  54  74 S7        29.95S
GREEN BAY      CLEAR     66  53  63 S5        29.95S
MANITOWOC      NOT AVBL
APPLETON       PTCLDY    63  46  55 SW7       29.95S
CLINTONVILLE   CLEAR     64  48  55 SW3       29.94S
OSHKOSH        CLOUDY    64  50  60 S3        29.96S
$$

WIZ032>034-041-042-053>061-280300-
SOUTHWEST WISCONSIN

CITY           SKY/WX    TMP DP  RH WIND       PRES   REMARKS
LA CROSSE      CLEAR     72  48  42 SE10      29.90F
SPARTA         CLEAR     65  49  56 S5        29.93F
VIROQUA        NOT AVBL
BOSCOBEL       CLEAR     68  48  48 S5        29.95S
PRAIRIE DU CHI NOT AVBL
PLATTEVILLE    NOT AVBL
$$

WIZ056-057-062-063-064-067-068-280300-
SOUTH CENTRAL WISCONSIN

CITY           SKY/WX    TMP DP  RH WIND       PRES   REMARKS
REEDSBURG      NOT AVBL
BARABOO/DELLS  NOT AVBL
LONE ROCK      PTCLDY    65  50  58 SE3       29.95F
MINERAL POINT  PTCLDY    64  48  55 S5        29.97F
MADISON        PTCLDY    69  47  45 S7        29.97S
MIDDLETON      PTCLDY    68  47  46 S6        29.98F
WATERTOWN      NOT AVBL
MONROE         NOT AVBL
JANESVILLE     PTCLDY    66  46  48 S5        29.99S
$$

WIZ051-052-058>065-066-070>072-280300-
SOUTHEAST WISCONSIN

CITY           SKY/WX    TMP DP  RH WIND       PRES   REMARKS
MILWAUKEE      MOCLDY    65  51  60 S8        30.00S
WAUKESHA       CLEAR     66  45  45 CALM      30.00F
MILWAUKEE/TIMM CLEAR     68  43  40 S3        30.00F
RACINE         CLEAR     64  50  60 S8        30.02F
KENOSHA        CLEAR     66  46  48 S10       30.01S
FOND DU LAC    CLOUDY    65  49  56 S5        29.97F
SHEBOYGAN      CLEAR     63  53  70 S6        29.98S
WEST BEND      NOT AVBL
JUNEAU         NOT AVBL
$$

LSZ147-162-280300-
LAKE SUPERIOR

STATION/POSITION TIME  TEMP    WIND        PRES    WAVE
                       AIR SEA DIR/SP/G            HT/PER
                 (UTC) (F)     (DEG/KT/KT) (MB)    (FT/S)
W MID LAKE BUOY  0050   49 39  180/  8/  8 1011.0F   0
DEVILS ISLAND    0100   69     200/  4/  5 1010.4F
SAXON HARBOR     0140   66     200/  1/  2 1010.8S
$$

LMZ867-665-643>646-280300-
LAKE MICHIGAN

STATION/POSITION TIME  TEMP    WIND        PRES    WAVE
                       AIR SEA DIR/SP/G            HT/PER
                 (UTC) (F)     (DEG/KT/KT) (MB)    (FT/S)
CHAMBERS ISLAND  0140   65     160/  4/  7 1013.2S
S GREEN BAY BUOY 0130   69     220/  8/ 10 1013.5F
N MID LAKE BUOY  0050   58 55  190/ 14/ 14 1014.9F   1/ 3
NORTHPORT PIER   0140   62     150/  7/  9 1013.5F
KEWAUNEE LAKESHO 0130   57     180/  9/ 10 1014.1S
SHEBOYGAN LAKESH 0100   63     180/ 16/ 17 1015.0F
PORT WASHINGTON  0140   58     190/  6/  9 1016.3S
ATWATER BUOY     0009   62 57  160/ 12/ 16 1015.9F
MILWAUKEE LAKESH 0130   61     150/ 14/ 15   N/A
S MID LAKE BUOY  0050   63 62  170/ 10/ 12 1016.7F   1/ 3
KENOSHA   LAKESH 0100   63     170/ 13/ 14 1015.9
$$

TC  - TEMPERATURE IN CELSIUS
VSB - VISIBILITY IN STATUTE MILES
WCI - WIND CHILL INDEX
HX  - HEAT INDEX





USA.gov is the U.S. government's official web portal to all federal, state and local government web resources and services.